Regional Weather Roundup
Issued by NWS

Home | Current Version | Previous Version | Text Only | Print | Product List | Glossary On
Versions: 1 2 3 4 5 6 7 8 9 10 11 12 13 14 15 16 17 18 19 20 21 22 23 24 25 26 27 28 29 30 31 32 33 34 35 36 37 38 39 40 41 42 43 44 45 46 47 48 49 50
612
ASUS45 KBOU 232110
RWRCO

WEATHER ROUNDUP FOR COLORADO
NATIONAL WEATHER SERVICE DENVER/BOULDER CO
300 PM MDT WED MAY 23 2018

NOTE: "FAIR" INDICATES FEW OR NO CLOUDS BELOW 12000 FEET WITH NO
SIGNIFICANT WEATHER AND/OR OBSTRUCTIONS TO VISIBILITY.

COZ001>005-013-030-031-232200-
...NORTHWEST COLORADO...

CITY           SKY/WX    TMP DP  RH WIND       PRES   REMARKS
CRAIG          FAIR      75  34  22 SW18G28   30.03F
HAYDEN         FAIR      67  37  33 NW13G20   30.07F
MEEKER         FAIR      71  30  21 SW14      30.04F
RANGELY        FAIR      72  33  24 CALM      30.00F
RABBIT EARS PA CLOUDY    50  28  43 W9G16     30.28S
STEAMBOAT SPGS FAIR      64  41  42 NW9G16    30.07R
WALDEN         PTSUNNY   63  25  23 SW15G21   30.14S
$$

COZ006>008-011-232200-
...WEST CENTRAL VALLEYS...

CITY           SKY/WX    TMP DP  RH WIND       PRES   REMARKS
GRAND JUNCTION FAIR      79  34  19 VRB6      29.97F
MONTROSE       FAIR      78  18  10 SW17G30   30.00F
EAGLE          FAIR      75  22  13 W26G35    30.04F
RIFLE          FAIR      79  27  14 W22       29.98F
DELTA          FAIR      83  19   9 SW10G23   29.98F
NUCLA          FAIR      79  14   8 W15G29    30.09S
$$

COZ017>023-064>068-232200-
...SOUTHWEST COLORADO...

CITY           SKY/WX    TMP DP  RH WIND       PRES   REMARKS
DURANGO        FAIR      73  24  16 SW8       30.12F
CORTEZ         FAIR      75  19  12 VRB3G25   30.07F
PAGOSA SPRINGS FAIR      71  11  10 SW14G25   30.18S
TELLURIDE      PTSUNNY   60  19  20 SE17G24   30.24F
WOLF CREEK PAS FAIR      46  21  36 SW20G31   30.45R
$$

COZ009-010-012-014-032>034-037-058>063-232200-
...CENTRAL COLORADO...

CITY           SKY/WX    TMP DP  RH WIND       PRES   REMARKS
ASPEN          FAIR      71  21  15 SW5G26    30.10F
BUENA VISTA    FAIR      72  13  10 SW14G24   30.12S
COPPER MTN     PTSUNNY   54  19  26 S10G17    30.38S
BERTHOUD PASS  PTSUNNY   43  32  65 SW10G28   30.41S
COTTONWOOD PAS CLOUDY    63  14  15 S12G32    30.26S
GUNNISON       FAIR      71  20  14 SW15G25   30.11F
GRANBY         MOCLDY    66  31  26 W12G17    30.15S
KREMMLING      FAIR      77  21  12 W6        30.10F
LEADVILLE      PTSUNNY   59  18  20 S17G30    30.23F
MONARCH PASS   CLOUDY    48  12  23 MISG      30.48S
SALIDA         FAIR      75  17  11 S15G24    30.17S
SUNLIGHT       FAIR      54  25  32 SW12G29   30.33S
WILKERSON PASS CLOUDY    54  19  26 W5        30.38F
$$

COZ069>075-232200-
...SAN LUIS VALLEY/SANGRE DE CRISTO MOUNTAINS...

CITY           SKY/WX    TMP DP  RH WIND       PRES   REMARKS
ALAMOSA        FAIR      75  17  11 SW23G33   30.12F
DEL NORTE      FAIR      70  22  16 W9G20     30.16F
LA VETA PASS   FAIR      64  21  19 S22G40    30.39F
SAGUACHE       NOT AVBL
$$

COZ035-036-038>040-232200-
...NORTHERN COLORADO FRONT RANGE...

CITY           SKY/WX    TMP DP  RH WIND       PRES   REMARKS
DENVER INTL AP PTSUNNY   78  46  32 NE12      29.97F
AURORA         MOSUNNY   77  42  28 N10       29.98F
FRONT RANGE AP PTSUNNY   79  43  27 N10G22    29.99S
ERIE MUNI ARPT FAIR      76  43  30 N9G17     30.01F
BOULDER MUN AP LGT RAIN  70  54  56 N5        29.97F
CENTENNIAL     PTSUNNY   78  31  17 SW12G23   29.98F
BROOMFIELD     PTSUNNY   77  41  27 N9        29.99F
FORT COLLINS   FAIR      77  51  40 SE9G18    29.97F
LONGMONT       LGT RAIN  76  43  31 CALM      29.98F
$$

COZ041-046-047-076>085-087-088-232200-
...PIKES PEAK/PALMER DIVIDE AND SOUTHERN FOOTHILLS...

CITY           SKY/WX    TMP DP  RH WIND       PRES   REMARKS
COLO. SPRINGS  FAIR      81  30  15 S18G36    30.02F
A. F. ACADEMY  FAIR      79  27  15 SE22G30   30.02F
SCHRIEVER AFB  NOT AVBL
CHEYENNE MTN   FAIR      73  27  18 SE18G33   30.01F
ELLICOTT         N/A    N/A N/A N/A S20G28    30.02F
FALCON         NOT AVBL
FORT CARSON    FAIR      83  29  14 SW12G24   29.99F
LIMON          FAIR      82  34  17 S29G40    29.98F
MONUMENT HILL  FAIR      72  30  21 S20G25    30.08F
CANON CITY     FAIR      86  27  11 SE5G17    29.95F
WALSENBURG     FAIR      79  46  31 S25G37    30.02F
TRINIDAD       FAIR      76  51  41 S24G36    30.05F
$$

COZ042>045-048>051-090-091-232200-
...NORTHEAST COLORADO...

CITY           SKY/WX    TMP DP  RH WIND       PRES   REMARKS
GREELEY ARPT   FAIR      75  48  38 SE16G24   29.96F
AKRON          FAIR      83  47  28 S20G28    29.94F
BURLINGTON     FAIR      85  49  28 S24G36    29.97F
WRAY           FAIR      84  50  30 S12       29.92F
YUMA           FAIR      82  52  34 S17G23    29.93F
STERLING       FAIR      81  52  36 S5        29.92F
HOLYOKE        FAIR      86  50  28 S18       29.92F
FORT MORGAN    PTSUNNY   77  46  33 NW13G25   29.96S
$$

COZ086-089-092>099-232200-
...SOUTHEAST COLORADO...

CITY           SKY/WX    TMP DP  RH WIND       PRES   REMARKS
PUEBLO         FAIR      87  35  15 S12G25    29.91F
LA JUNTA       FAIR      87  47  24 S21G43    29.94F
LAMAR          FAIR      90  46  21 S24G35    29.93F
SPRINGFIELD      N/A     81  54  39 S26G37    30.04F
$$




USA.gov is the U.S. government's official web portal to all federal, state and local government web resources and services.